Regional Weather Roundup
Issued by NWS

Home | Current Version | Previous Version | Text Only | Print | Product List | Glossary Off
Versions: 1 2 3 4 5 6 7 8 9 10 11 12 13 14 15 16 17 18 19 20 21 22 23 24 25 26 27 28 29 30 31 32 33 34 35 36 37 38 39 40 41 42 43 44 45 46 47 48 49 50

000
ASUS43 KDTX 301201
RWRMI
MICHIGAN HOURLY REGIONAL WEATHER ROUNDUP
NATIONAL WEATHER SERVICE DETROIT/PONTIAC MI
800 AM EDT WED JUL 30 2014

NOTE: "FAIR" INDICATES FEW OR NO CLOUDS BELOW 12,000 FEET WITH NO
SIGNIFICANT WEATHER AND/OR OBSTRUCTION TO VISIBILITY.

MIZ047>049-052>055-059>063-066>070-074>076-081>083-301300-
SOUTHEAST LOWER MICHIGAN

CITY           SKY/WX    TMP DP  RH WIND       PRES   REMARKS
ADRIAN         PTSUNNY   59  57  93 NW3       30.01R
6HR MIN TEMP:  56; 6HR MAX TEMP:  59;

ALMA           CLOUDY    57  56  95 CALM      30.01S
6HR MIN TEMP:  52; 6HR MAX TEMP:  57;

ANN ARBOR      MOSUNNY   59  55  87 NW3       30.00R
BAD AXE        MOSUNNY   57  57 100 NW5       29.98R
6HR MIN TEMP:  50; 6HR MAX TEMP:  57;

CARO           CLOUDY    58  58 100 CALM      29.98R
DETROIT CITY   SUNNY     61  56  83 W5        29.98S
6HR MIN TEMP:  60; 6HR MAX TEMP:  64;

DETROIT        CLOUDY    60  56  86 W3        30.00R
6HR MIN TEMP:  57; 6HR MAX TEMP:  60;

FLINT          CLOUDY    58  55  90 NW5       29.99R
6HR MIN TEMP:  54; 6HR MAX TEMP:  58;

GROSSE ILE     MOSUNNY   61  55  82 W3        29.98S
HILLSDALE      MOSUNNY   59  59  99 NW5       30.01S FOG
6HR MIN TEMP:  53; 6HR MAX TEMP:  59;

HOWELL         PTSUNNY   55  55 100 W5        30.00S FOG

CITY           SKY/WX    TMP DP  RH WIND       PRES   REMARKS
JACKSON        SUNNY     56  55  97 W6        30.01R FOG
6HR MIN TEMP:  53; 6HR MAX TEMP:  59;

LAMBERTVILLE   PTSUNNY   59  55  88 CALM      30.01R
LANSING        FOG       56  55  97 W3        30.00S VSB 1/4
6HR MIN TEMP:  53; 6HR MAX TEMP:  58;

LAPEER         CLOUDY    56  55  97 W3        29.99S FOG
MASON          FOG       56  55  98 W3        30.00S VSB 1/4
MONROE         PTSUNNY   61  57  88 CALM      29.98S
MT. CLEMENS    MOSUNNY   60  58  93 W5        29.97R
6HR MIN TEMP:  57; 6HR MAX TEMP:  61;

PONTIAC        PTSUNNY   57  55  93 W5        29.98S
6HR MIN TEMP:  56; 6HR MAX TEMP:  59;

PORT HOPE        N/A     62  54  74 CALM      29.96R
6HR MIN TEMP:  56; 6HR MAX TEMP:  62;

PORT HURON     SUNNY     57  57 100 W3        29.97S
TRI CITIES     LGT RAIN  58  56  93 W5        30.00R
6HR MIN TEMP:  55; 6HR MAX TEMP:  59; 6HR PCP:  0.02;

TROY           MOSUNNY   58  57  94 CALM      30.00R
SAGINAW HB     CLOUDY    59  59 100 W3        29.99R
$$
MIZ043>046-050>051-056>058-064>065-071>073-077>080-301300-
SOUTHWEST LOWER MICHIGAN

CITY           SKY/WX    TMP DP  RH WIND       PRES   REMARKS
BATTLE CREEK   MOSUNNY   59  55  87 W3        30.02R
6HR MIN TEMP:  56; 6HR MAX TEMP:  60;

BENTON HARBOR  MOSUNNY   58  57  97 CALM      30.02R
6HR MIN TEMP:  51; 6HR MAX TEMP:  61;

BIG RAPIDS     MOSUNNY   57  57 100 N3        30.00S
6HR MIN TEMP:  54; 6HR MAX TEMP:  57;

COLDWATER      MOSUNNY   59  58  97 W3        30.01S FOG
6HR MIN TEMP:  56; 6HR MAX TEMP:  59;

FREMONT        FAIR      55  55 100 CALM      30.00S FOG
6HR MIN TEMP:  49; 6HR MAX TEMP:  55;

HOLLAND        MOSUNNY   61  58  90 CALM      30.01S
6HR MIN TEMP:  54; 6HR MAX TEMP:  61;

GRAND RAPIDS   PTSUNNY   59  56  89 SW5       30.01R
6HR MIN TEMP:  56; 6HR MAX TEMP:  61;

IONIA          FOG       55  55  99 CALM      30.00S VSB 1/2
KALAMAZOO      MOSUNNY   59  56  89 W5        30.03R
6HR MIN TEMP:  53; 6HR MAX TEMP:  63;

LUDINGTON      MOSUNNY   55  54  97 CALM      30.01S FOG
6HR MIN TEMP:  49; 6HR MAX TEMP:  55;

MARSHALL       MOSUNNY   56  55  99 CALM      30.01R FOG
MOUNT PLEASANT CLOUDY    58  57  94 CALM      30.00R
6HR MIN TEMP:  53; 6HR MAX TEMP:  58;

MUSKEGON       FOG       55  53  93 SW3       30.01R VSB 1/4
6HR MIN TEMP:  53; 6HR MAX TEMP:  57;

SOUTH HAVEN    MOSUNNY   56  56 100 CALM      30.02R
$$
MIZ016>042-301300-
NORTHERN LOWER MICHIGAN

CITY           SKY/WX    TMP DP  RH WIND       PRES   REMARKS
ALPENA         SUNNY     53  51  93 NW5       29.98R
6HR MIN TEMP:  50; 6HR MAX TEMP:  53;

BEAVER ISLAND  CLOUDY    54  54 100 CALM      30.00S
6HR MIN TEMP:  51; 6HR MAX TEMP:  55;

BELLAIRE       FOG       51  50  96 CALM      30.01R VSB 1/2
6HR MIN TEMP:  49; 6HR MAX TEMP:  54;

CADILLAC       FOG       54  54 100 CALM      30.01R VSB<1/4
CHARLEVOIX     CLOUDY    60  58  96 NW7       30.02S
6HR MIN TEMP:  52; 6HR MAX TEMP:  60;

FRANKFORT      SUNNY     51  49  92 CALM      30.01S FOG
GAYLORD        CLOUDY    53  51  93 NW3       30.00S FOG
6HR MIN TEMP:  47; 6HR MAX TEMP:  54;

GRAYLING       FOG       51  51 100 W3        30.01R VSB<1/4
6HR MIN TEMP:  49; 6HR MAX TEMP:  54;

HARBOR SPRINGS PTSUNNY   57  53  88 CALM      29.99S
HOUGHTON LAKE  SUNNY     53  51  93 NW5       30.01R
6HR MIN TEMP:  45; 6HR MAX TEMP:  55;

MANISTEE       SUNNY     52  48  87 CALM      30.02S
OSCODA         SUNNY     54  52  93 NW6       29.97R
PELLSTON       SUNNY     54  52  93 CALM      30.00R
6HR MIN TEMP:  45; 6HR MAX TEMP:  54;

ROGERS CITY    SUNNY     55  54  99 W6        29.99S
TRAVERSE CITY  MOSUNNY   56  52  86 CALM      30.00R
6HR MIN TEMP:  50; 6HR MAX TEMP:  58;

$$
MIZ007>008-015-301300-
EASTERN UPPER MICHIGAN

CITY           SKY/WX    TMP DP  RH WIND       PRES   REMARKS
KINROSS        CLOUDY    50  48  93 NW6       30.00R VSB<1/4
6HR MIN TEMP:  48; 6HR MAX TEMP:  52;

MACKINAC ISLAN FOG       50  50 100 N7        30.00R VSB 1/4
6HR MIN TEMP:  48; 6HR MAX TEMP:  52;

NEWBERRY       FOG       48  48 100 NW6       30.01R VSB 1/4
6HR MIN TEMP:  47; 6HR MAX TEMP:  50;

S. S. MARIE    FOG       50  49  96 NW6       29.99R VSB 1/2
6HR MIN TEMP:  48; 6HR MAX TEMP:  50;

MUNISING         N/A     54  49  83 N3        30.02R
6HR MIN TEMP:  47; 6HR MAX TEMP:  55;

$$
MIZ004>006-011>014-085-301300-
CENTRAL UPPER MICHIGAN

CITY           SKY/WX    TMP DP  RH WIND       PRES   REMARKS
MANISTIQUE     FOG       51  51 100 N7        30.01R VSB 1/4
ESCANABA       SUNNY     50  46  87 N5        30.02R
6HR MIN TEMP:  45; 6HR MAX TEMP:  52;

MENOMINEE      SUNNY     54  50  87 NW6       30.02S
6HR MIN TEMP:  52; 6HR MAX TEMP:  59; 6HR PCP:  0.01;

SAWYER-GWINN   SUNNY     50  48  93 N3        30.04R
$$
MIZ001>003-009>011-084-301300-
WESTERN UPPER MICHIGAN

CITY           SKY/WX    TMP DP  RH WIND       PRES   REMARKS
IRON MOUNTAIN  SUNNY     51  48  89 NW6       30.04R
6HR MIN TEMP:  45; 6HR MAX TEMP:  51;

HOUGHTON       SUNNY     52  49  89 NW8       30.03S
6HR MIN TEMP:  45; 6HR MAX TEMP:  52;

COPPER HARBOR    N/A     54  48  80 W3        30.02S
6HR MIN TEMP:  50; 6HR MAX TEMP:  54;

IRONWOOD       CLOUDY    54  54 100 SW3       30.05F VSB<1/4
$$

ABBREVIATIONS USED IN REMARKS
   TC - TEMPERATURE IN CELSIUS
  WCI - WIND CHILL INDEX
   HX - HEAT INDEX
  VSB - VISIBILITY




USA.gov is the U.S. government's official web portal to all federal, state and local government web resources and services.